Location: Namasale
(1.5000°N, 32.6167°E)
Time: 23:22:22
(UTC+00:00)

Transit 2A - Pass Details

Date: 24 April 2021
Orbit: 602 x 957 km, 66.7° (Epoch: 11 May)

Event Time Altitude Azimuth Distance (km) Brightness Sun altitude
Rises 01:56:12 0° 188° (S) 3,430 - -26.7°
Reaches altitude 10° 01:58:54 10° 181° (S) 2,436 - -26.1°
Exits shadow 02:00:09 16° 176° (S) 1,992 8.0 -25.8°
Maximum altitude 02:04:10 43° 111° (ESE) 1,079 7.1 -24.8°
Drops below altitude 10° 02:08:55 10° 40° (NE) 2,200 9.1 -23.7°
Sets 02:11:14 0° 33° (NNE) 3,064 9.8 -23.1°
